Temperature
8 11 11 10 9 9 9 9 9 10 9 8 9 10 10 10 9 9 9 8 8 7 7 7 7 6 6 7 6 6 6 6 6 6 6 6 6 7 7 7 7 8 8 8
10 10 9 8 8 8 8 9 10 10 8 8 8 9 10 9 9 8 8 8 8 7 7 7 6 6 6 6 6 6 6 6 6 6 6 6 6 6 6 7 7 7 7 8
11 10 8 8 8 8 9 9 9 8 8 8 7 11 11 10 8 8 7 7 7 7 7 7 6 6 6 6 6 6 6 6 6 5 5 5 5 6 6 6 6 7 7 7
9 8 7 8 8 8 9 8 7 7 7 9 7 10 12 10 9 9 8 8 7 7 7 6 6 6 6 6 6 6 5 5 5 5 5 5 5 5 6 6 6 6 6 7
9 7 7 8 8 7 8 7 6 6 7 7 7 7 12 10 10 10 9 8 8 7 6 6 6 6 6 6 5 5 5 5 5 5 5 5 5 5 5 5 5 6 6 6
8 6 7 7 7 6 6 6 6 6 7 7 8 8 11 11 10 10 9 8 7 7 6 6 6 6 5 5 5 5 5 5 5 4 5 5 5 5 5 5 5 5 6 6
8 7 6 6 7 7 7 8 9 9 9 10 7 7 10 10 9 8 8 8 7 7 6 6 5 5 5 5 5 5 4 4 4 4 4 4 4 4 4 5 5 5 5 5
8 9 7 6 7 7 7 7 8 9 11 11 8 8 10 9 8 7 7 7 7 7 6 5 5 5 5 5 5 4 4 4 4 4 4 4 4 4 4 4 4 5 5 5
8 8 6 5 5 6 6 7 6 6 5 6 9 9 9 9 9 8 8 7 7 6 6 5 5 5 5 4 4 4 4 4 4 3 3 4 4 4 4 4 4 4 5 5
7 7 6 5 5 5 6 6 5 6 7 9 10 9 10 9 9 9 8 8 7 6 5 5 5 4 4 4 4 4 3 3 3 3 3 3 3 4 4 4 4 4 4 4
6 6 6 5 5 6 4 5 5 6 6 7 9 11 10 9 9 9 8 7 6 6 5 5 4 4 4 4 4 4 3 3 3 3 3 3 3 3 4 4 4 4 4 4
5 6 6 6 5 5 5 5 5 6 5 5 7 9 10 9 8 7 7 7 6 5 5 4 4 4 4 3 3 3 3 3 3 3 3 3 3 3 3 3 4 3 4 4
4 4 6 7 5 3 3 4 4 4 4 5 6 9 9 8 8 7 7 6 6 5 4 4 4 4 3 3 3 3 3 2 2 2 2 2 3 3 3 3 3 3 3 3
5 4 6 8 8 5 3 3 3 3 4 5 6 8 9 9 9 8 7 6 6 5 4 4 4 3 3 3 2 2 2 2 2 2 2 2 2 2 3 3 3 3 3 3
4 4 4 5 6 5 5 4 3 3 4 5 7 7 8 9 8 7 6 6 5 4 4 4 3 3 3 2 2 2 2 2 2 2 2 2 2 2 2 2 2 2 3 3
3 3 3 4 5 5 4 5 5 4 4 5 5 6 7 7 6 6 5 5 4 4 4 3 3 2 2 2 2 2 2 2 2 2 2 2 2 2 2 2 2 2 3 3
3 2 3 5 5 4 5 6 5 5 5 5 5 6 7 6 6 5 5 4 4 3 3 3 2 2 2 2 1 1 1 2 1 1 2 2 2 2 2 2 2 2 2 3
2 2 3 4 3 4 8 6 6 5 5 5 5 6 6 5 5 4 4 3 3 3 2 2 2 1 1 1 1 1 1 1 1 1 2 2 2 1 2 2 2 2 2 3
3 3 3 3 4 6 7 5 4 4 5 6 5 5 5 4 4 4 4 3 3 2 1 1 1 1 1 1 1 1 1 1 1 1 1 1 1 1 1 2 2 2 2 3
2 2 3 3 4 5 8 5 4 4 5 6 5 5 5 4 4 5 4 3 2 2 1 1 1 1 1 1 1 0 1 1 1 1 1 1 1 1 1 1 2 2 2 2
1 2 2 3 4 6 7 3 3 5 6 5 4 4 4 4 4 3 2 2 1 1 1 1 0 0 0 0 0 0 0 0 1 1 1 1 1 1 1 1 2 2 2 2
3 3 3 3 3 5 5 2 4 6 5 4 4 4 3 3 2 2 1 1 1 0 0 0 -0 -0 -0 -0 -0 -0 -0 0 0 0 1 1 1 1 1 1 1 2 2 2
4 4 4 4 6 6 4 4 4 4 4 3 3 3 2 2 1 1 1 0 0 -0 -0 -0 -1 -0 -0 -0 -0 -0 -0 -0 -0 0 0 0 1 1 1 1 1 1 1 2
3 2 3 3 4 5 3 3 3 3 3 3 2 2 1 1 1 0 -0 -0 -0 -1 -1 -1 -1 -1 -1 -1 -1 -1 -1 -1 -1 -1 -0 -0 0 0 0 0 0 1 1 1
4 1 2 2 4 3 3 3 3 3 2 2 2 1 1 0 -0 -0 -1 -1 -1 -1 -1 -1 -1 -1 -1 -1 -1 -1 -1 -1 -1 -1 -1 -1 -1 -0 -0 0 0 0 1 1
3 2 3 4 5 4 4 3 3 2 2 1 1 0 0 -0 -1 -1 -1 -1 -1 -2 -2 -2 -2 -2 -2 -2 -1 -1 -1 -2 -2 -2 -1 -1 -1 -1 -1 -0 -0 0 1 1
Wind_Speed
1 2 1 0 0 2 3 5 9 8 5 9 13 18 18 12 9 8 7 6 6 6 7 6 7 8 8 9 9 10 10 10 8 7 7 7 8 8 7 7 9 9 9 8
3 3 1 1 1 2 4 7 8 7 5 8 14 18 13 7 5 4 5 5 5 6 7 7 8 8 9 9 10 10 11 11 9 8 8 8 9 9 8 8 9 10 10 9
3 1 2 2 2 4 5 6 8 10 12 6 9 9 4 2 2 3 4 4 5 6 8 9 9 10 10 10 10 10 11 11 11 10 8 8 8 8 8 9 9 10 11 11
2 2 3 3 3 4 5 4 8 10 9 5 5 7 5 2 3 4 4 4 5 7 8 10 10 11 11 11 11 11 12 12 11 10 10 11 11 11 12 10 10 11 12 12
2 3 3 4 3 4 4 5 6 6 5 6 4 5 6 2 4 4 4 5 6 8 9 10 11 11 12 12 11 11 12 12 12 11 12 12 13 12 11 10 12 12 12 13
2 1 2 2 1 2 3 3 2 3 3 4 4 5 6 4 5 3 4 6 8 9 10 11 11 12 13 12 12 12 13 13 13 12 12 13 14 15 14 14 12 11 11 11
2 3 2 2 1 1 2 3 3 2 3 3 2 5 8 4 5 6 7 8 9 11 11 12 13 14 14 14 13 13 14 14 14 13 13 13 14 16 16 15 13 12 11 11
3 3 4 3 2 1 1 1 2 4 5 5 3 7 6 4 6 7 8 9 10 11 12 13 14 14 14 14 14 14 14 15 14 14 13 13 14 12 12 14 13 14 12 12
4 2 2 1 1 2 2 2 1 1 3 6 7 7 9 7 8 8 9 10 11 12 13 14 14 14 15 15 14 14 15 15 14 14 14 14 13 13 13 13 13 12 12 12
3 3 2 2 2 1 1 4 3 2 3 6 8 7 5 6 7 6 8 10 12 13 14 14 14 14 14 14 14 14 14 14 14 14 13 12 13 13 13 12 12 13 13 13
3 3 2 4 7 6 5 4 4 3 3 5 7 7 3 7 6 7 9 11 13 14 15 14 14 15 14 14 14 13 13 14 13 13 13 13 13 13 12 11 11 12 12 12
5 3 4 5 1 2 6 7 7 4 5 5 7 9 3 6 6 8 12 14 15 15 15 15 15 15 14 14 14 13 13 13 13 13 13 13 12 12 11 11 11 11 12 12
7 5 3 3 3 4 5 7 8 4 4 7 8 10 2 5 9 11 14 17 16 16 15 15 15 15 14 14 13 13 13 14 13 13 13 13 13 12 11 11 10 10 11 12
7 6 9 9 5 4 7 9 11 9 8 10 16 21 19 16 17 18 18 18 17 16 15 15 15 15 14 14 14 14 14 14 13 13 13 13 13 13 11 9 9 10 10 11
7 7 10 14 13 10 13 13 15 17 17 14 18 22 25 21 19 19 18 17 17 16 16 16 16 15 14 14 14 14 15 14 13 13 13 13 13 12 10 9 9 9 10 10
7 6 6 11 13 14 18 20 20 21 22 24 26 27 24 21 17 16 16 16 16 16 17 17 17 16 15 15 15 15 15 14 13 14 14 13 12 11 10 9 9 9 9 9
8 6 5 8 7 8 14 16 19 16 17 16 20 20 18 16 15 15 15 15 16 17 17 17 16 15 15 16 15 15 15 13 13 13 13 12 12 11 10 9 9 9 9 8
10 8 5 5 4 11 8 3 10 15 17 19 18 18 16 15 16 16 15 14 15 16 16 16 16 16 15 15 15 14 14 13 13 13 12 11 10 10 10 9 8 8 8 7
12 9 6 5 8 13 10 6 7 10 12 14 17 17 16 14 14 14 11 11 14 15 15 15 15 15 15 15 14 14 13 13 13 12 12 10 9 9 9 10 9 8 7 6
9 9 8 7 8 10 6 4 6 4 9 7 9 12 12 10 10 12 11 12 14 15 15 15 15 15 14 14 13 13 13 13 13 12 12 10 9 9 9 10 10 8 7 6
9 9 13 14 12 12 5 7 9 6 6 2 6 8 9 9 11 12 13 13 14 15 15 15 15 14 13 13 12 12 13 13 13 12 11 9 9 9 9 9 8 8 6 5
13 11 12 11 12 12 7 10 10 7 4 4 6 8 9 12 13 13 14 14 14 15 15 14 13 14 13 12 12 12 13 13 12 11 11 10 10 9 8 9 8 7 5 5
12 11 8 11 11 4 10 9 8 5 6 7 8 9 10 11 13 14 14 14 14 14 14 13 13 14 13 12 11 13 13 12 11 11 10 9 9 8 7 7 7 6 5 4
8 6 7 9 12 10 10 10 9 9 10 10 10 10 10 12 13 14 13 13 14 13 13 12 12 13 13 12 12 12 12 10 10 10 10 9 8 8 8 6 5 5 4 4
8 7 7 11 12 11 11 13 12 11 11 11 10 10 10 11 13 13 13 13 13 12 12 11 11 12 13 13 12 12 11 10 10 10 9 8 8 8 7 7 6 6 5 5
10 11 11 13 11 9 11 9 10 11 11 11 11 11 10 10 11 12 12 12 12 12 12 12 12 13 13 13 12 11 10 8 8 8 8 7 6 6 6 6 6 6 6 8
Wind_Direction
33 199 213 299 260 268 269 275 285 288 305 301 283 286 290 295 281 265 263 269 277 292 303 308 307 309 305 303 301 302 302 301 302 296 293 292 289 284 278 271 262 259 256 252
188 209 209 201 211 245 258 281 290 294 303 298 295 290 287 286 266 255 258 264 282 299 309 312 312 313 311 304 302 299 299 298 296 288 288 281 279 279 275 268 263 258 252 247
224 127 155 205 243 278 266 271 297 304 311 278 302 285 241 229 239 250 252 260 280 298 308 314 316 314 314 313 310 303 299 296 294 290 286 281 277 276 272 267 262 255 253 248
213 198 212 239 258 273 281 277 290 298 306 300 332 298 272 258 255 240 248 259 283 301 305 310 313 316 315 312 309 305 303 296 293 289 280 276 273 275 271 269 263 256 252 249
201 193 215 244 270 252 281 309 291 281 273 283 253 261 275 249 249 234 242 268 292 302 305 308 311 313 313 311 308 307 306 298 294 289 281 274 269 274 274 268 262 256 250 247
237 221 252 261 296 247 284 284 242 221 241 264 242 249 276 233 228 243 264 288 303 308 306 308 312 313 312 312 310 309 308 303 299 292 285 276 273 276 273 266 263 258 252 246
226 197 188 211 235 188 302 302 295 285 261 264 157 253 259 257 241 249 266 285 299 306 309 312 313 314 314 312 311 311 309 305 303 298 290 285 278 274 268 262 259 257 252 248
244 225 182 193 229 244 244 284 293 292 291 297 252 251 260 267 261 262 274 287 297 304 309 311 312 311 310 309 309 310 308 306 304 301 296 291 284 277 269 259 258 255 250 247
223 231 123 174 251 210 177 184 5 250 286 280 263 266 282 255 250 259 280 292 300 306 310 311 310 309 309 308 308 306 305 305 304 301 297 292 288 283 274 263 259 258 253 248
200 238 199 168 175 166 267 157 168 212 279 281 278 269 259 245 252 266 288 300 306 309 310 311 309 308 306 306 305 305 302 303 302 301 298 294 292 286 278 270 262 261 258 252
188 209 203 198 211 205 172 181 202 217 255 269 287 278 238 253 261 279 297 305 310 311 310 310 309 308 306 307 306 306 305 305 304 304 300 298 295 290 277 272 269 267 263 258
182 206 239 228 179 262 220 209 190 217 236 236 270 278 261 256 274 291 302 308 311 310 309 309 310 310 309 308 308 307 307 306 307 306 302 300 295 294 281 276 274 270 266 259
159 177 235 224 200 195 221 220 217 226 239 236 247 268 251 266 286 295 302 308 310 310 309 309 310 310 309 309 309 308 307 307 307 305 303 301 299 297 287 282 280 276 270 263
168 198 225 249 274 198 224 224 210 205 228 245 245 266 279 286 294 300 305 308 309 309 308 308 310 309 308 308 309 309 308 307 306 304 303 301 301 299 290 285 282 282 278 273
188 228 236 255 263 253 249 243 222 220 231 246 263 270 280 290 299 303 304 305 306 307 308 310 311 310 309 309 310 310 307 306 305 305 304 301 301 300 289 282 281 281 281 277
198 229 241 259 252 254 260 254 241 237 241 248 263 273 278 289 295 296 300 304 305 307 310 312 313 311 309 310 311 310 307 306 306 305 305 304 304 304 300 285 284 283 286 280
189 197 222 259 266 273 261 246 232 230 229 236 251 262 283 292 295 298 302 302 301 305 310 311 311 309 307 308 308 306 306 306 305 304 305 305 304 303 304 297 283 282 284 280
187 192 221 255 259 247 256 206 219 230 242 236 246 265 281 289 296 297 293 294 299 305 308 310 310 308 306 306 305 304 306 305 304 305 306 307 305 303 303 303 293 285 283 274
200 196 213 223 248 267 267 220 200 221 255 240 244 263 278 291 299 292 292 295 298 304 307 308 308 306 304 304 305 306 305 305 306 307 306 304 303 302 300 300 295 294 288 280
200 204 216 221 238 251 262 166 170 200 263 237 238 261 279 291 295 303 319 310 305 307 309 310 309 307 305 305 307 304 303 304 306 307 307 304 301 297 295 296 295 294 287 277
185 204 220 229 240 258 254 151 158 220 271 240 239 262 274 272 278 298 306 304 305 307 309 310 308 306 306 307 307 302 301 300 303 305 305 302 299 296 296 297 294 292 289 281
190 196 210 217 231 247 171 158 199 245 299 273 274 276 276 277 286 295 300 303 307 309 310 312 309 307 308 308 305 302 302 304 305 306 306 303 301 301 301 302 302 300 298 289
207 206 207 210 228 271 175 206 233 271 278 281 281 283 281 282 288 295 299 302 305 307 309 310 308 307 308 308 306 302 303 306 308 308 308 307 309 308 308 304 303 304 300 291
221 218 224 241 253 257 243 250 258 264 271 275 279 281 280 282 289 294 297 300 304 306 308 310 309 307 308 309 305 302 304 306 307 308 308 310 310 310 310 308 303 302 301 299
223 194 223 249 264 274 258 252 259 266 270 271 273 272 273 278 285 291 295 297 301 304 307 308 306 306 306 307 306 306 306 306 307 307 307 309 308 305 308 307 303 298 291 283
225 221 227 248 250 250 266 268 263 263 265 267 272 277 277 276 282 288 292 296 300 303 306 307 306 306 307 308 308 308 307 306 305 305 308 309 308 306 305 309 314 312 293 302
Height
1506 1505 1501 1503 1505 1505 1504 1503 1499 1495 1499 1498 1487 1480 1475 1476 1476 1475 1475 1474 1474 1472 1471 1469 1468 1466 1463 1461 1459 1457 1454 1452 1451 1449 1447 1445 1444 1442 1441 1440 1440 1440 1441 1441
1504 1502 1505 1507 1508 1507 1504 1501 1495 1493 1497 1496 1486 1478 1471 1472 1473 1473 1473 1472 1471 1470 1468 1467 1465 1462 1460 1457 1455 1452 1449 1448 1446 1444 1443 1441 1439 1437 1435 1435 1434 1434 1435 1435
1499 1504 1507 1507 1505 1504 1500 1499 1496 1497 1494 1493 1491 1468 1465 1468 1471 1471 1471 1470 1469 1468 1466 1463 1461 1459 1456 1453 1450 1448 1445 1443 1441 1439 1437 1435 1433 1431 1429 1429 1428 1427 1428 1428
1502 1506 1507 1505 1503 1503 1496 1499 1501 1499 1495 1484 1491 1472 1457 1464 1466 1467 1467 1467 1467 1465 1463 1461 1458 1455 1452 1449 1446 1443 1440 1438 1436 1434 1432 1430 1427 1424 1423 1422 1421 1420 1421 1421
1500 1505 1505 1503 1502 1504 1499 1502 1502 1500 1496 1493 1488 1486 1456 1462 1461 1461 1463 1464 1464 1463 1460 1457 1455 1452 1449 1446 1442 1439 1436 1433 1430 1428 1426 1423 1420 1418 1416 1415 1414 1413 1413 1414
1504 1506 1506 1504 1505 1505 1504 1502 1501 1499 1494 1487 1482 1481 1455 1454 1458 1458 1460 1461 1461 1459 1457 1454 1452 1449 1445 1442 1438 1435 1431 1427 1425 1422 1419 1416 1413 1410 1408 1407 1406 1405 1405 1406
1500 1503 1505 1506 1502 1503 1501 1495 1485 1479 1478 1469 1483 1481 1460 1455 1458 1459 1459 1459 1458 1457 1454 1451 1448 1444 1440 1437 1434 1430 1426 1421 1418 1415 1412 1409 1406 1403 1400 1399 1398 1397 1397 1397
1494 1491 1501 1503 1501 1500 1500 1497 1491 1483 1469 1463 1477 1471 1454 1456 1458 1458 1458 1457 1455 1453 1451 1448 1444 1440 1436 1433 1429 1425 1421 1416 1412 1409 1405 1402 1398 1395 1392 1391 1390 1389 1388 1388
1492 1492 1503 1504 1504 1502 1500 1497 1501 1498 1500 1493 1465 1461 1456 1452 1453 1454 1454 1453 1451 1450 1447 1444 1440 1436 1432 1428 1424 1421 1416 1411 1407 1403 1398 1395 1391 1388 1385 1383 1382 1381 1380 1380
1496 1497 1499 1503 1504 1505 1502 1501 1502 1497 1489 1472 1457 1455 1449 1447 1447 1449 1449 1449 1448 1446 1443 1440 1436 1432 1428 1424 1420 1416 1411 1406 1401 1397 1392 1388 1384 1381 1378 1375 1374 1373 1372 1372
1498 1498 1498 1500 1498 1496 1503 1503 1498 1495 1493 1481 1461 1446 1444 1445 1445 1446 1446 1446 1444 1442 1439 1435 1431 1427 1423 1419 1415 1410 1405 1400 1395 1390 1386 1382 1378 1374 1371 1369 1367 1366 1365 1364
1497 1496 1491 1491 1497 1498 1496 1494 1495 1492 1492 1491 1475 1453 1443 1445 1445 1446 1445 1443 1441 1439 1435 1431 1427 1422 1418 1413 1408 1404 1399 1395 1390 1385 1380 1376 1372 1368 1365 1363 1361 1360 1358 1357
1496 1497 1490 1482 1494 1500 1498 1494 1494 1494 1491 1483 1475 1450 1442 1444 1444 1444 1442 1440 1437 1434 1430 1426 1422 1418 1413 1408 1403 1399 1394 1389 1384 1380 1375 1370 1366 1362 1360 1357 1355 1354 1352 1350
1491 1491 1485 1472 1469 1483 1489 1490 1491 1492 1486 1473 1464 1446 1437 1439 1439 1439 1438 1435 1433 1430 1426 1422 1418 1413 1408 1403 1399 1394 1389 1384 1379 1374 1369 1364 1360 1357 1354 1351 1349 1347 1346 1344
1489 1485 1482 1478 1477 1479 1478 1478 1482 1483 1473 1468 1450 1445 1436 1436 1437 1436 1434 1431 1428 1425 1421 1417 1413 1408 1403 1398 1393 1389 1384 1379 1374 1369 1364 1359 1355 1351 1349 1346 1344 1342 1340 1339
1485 1483 1482 1476 1474 1474 1472 1466 1468 1468 1466 1460 1453 1444 1436 1436 1436 1433 1430 1427 1424 1421 1417 1413 1408 1403 1398 1393 1389 1384 1379 1374 1369 1364 1359 1354 1350 1346 1344 1341 1339 1337 1336 1334
1480 1482 1479 1466 1468 1470 1458 1449 1452 1453 1450 1451 1445 1436 1433 1433 1431 1430 1427 1424 1421 1417 1412 1408 1403 1399 1394 1389 1384 1379 1374 1369 1364 1359 1354 1350 1345 1342 1339 1337 1335 1333 1331 1330
1474 1476 1474 1468 1470 1461 1435 1440 1441 1442 1440 1440 1437 1433 1433 1431 1429 1426 1423 1420 1416 1412 1408 1403 1398 1393 1389 1384 1379 1374 1369 1365 1360 1355 1351 1346 1342 1338 1336 1333 1332 1330 1328 1327
1466 1469 1469 1466 1458 1441 1432 1436 1439 1440 1433 1431 1432 1430 1429 1427 1424 1419 1417 1415 1412 1408 1403 1399 1394 1389 1384 1379 1374 1369 1365 1361 1356 1352 1347 1343 1339 1336 1333 1330 1328 1327 1325 1324
1463 1464 1464 1461 1454 1438 1422 1432 1435 1437 1430 1425 1426 1425 1425 1424 1420 1413 1412 1410 1406 1402 1398 1393 1388 1383 1379 1374 1370 1365 1361 1357 1352 1348 1344 1340 1336 1333 1330 1328 1326 1324 1322 1321
1458 1458 1456 1451 1445 1428 1423 1431 1434 1432 1420 1421 1421 1421 1421 1420 1417 1414 1410 1406 1402 1398 1393 1388 1383 1378 1374 1370 1366 1361 1357 1353 1349 1344 1340 1337 1334 1331 1328 1325 1323 1321 1319 1318
1438 1441 1443 1441 1440 1426 1422 1428 1425 1418 1418 1418 1418 1417 1417 1414 1412 1409 1405 1401 1397 1393 1388 1383 1379 1374 1370 1366 1362 1357 1353 1349 1345 1341 1337 1334 1331 1329 1325 1322 1320 1319 1317 1315
1427 1424 1423 1423 1416 1413 1416 1415 1415 1416 1416 1415 1414 1413 1412 1409 1407 1404 1401 1396 1392 1388 1384 1379 1374 1369 1365 1361 1357 1353 1349 1346 1342 1338 1334 1331 1328 1326 1323 1321 1319 1317 1315 1314
1421 1423 1422 1419 1411 1412 1413 1412 1412 1413 1412 1411 1410 1409 1407 1405 1402 1399 1396 1392 1387 1383 1379 1375 1370 1365 1361 1357 1354 1350 1346 1342 1339 1335 1332 1329 1326 1323 1321 1320 1318 1316 1314 1312
1412 1418 1417 1413 1409 1409 1407 1407 1407 1408 1407 1406 1405 1404 1402 1400 1397 1394 1391 1387 1383 1379 1375 1371 1366 1362 1357 1353 1350 1346 1343 1340 1336 1333 1330 1327 1324 1322 1319 1317 1316 1314 1313 1312
1406 1408 1407 1401 1401 1403 1401 1401 1402 1402 1401 1401 1400 1398 1396 1395 1392 1389 1386 1382 1379 1375 1371 1366 1362 1358 1354 1350 1346 1343 1340 1337 1333 1330 1327 1325 1322 1320 1318 1315 1313 1312 1311 1310